Location: Blue Sky Observatory
(43.1153°N, 70.9036°W)
Time: 10:01:41
(UTC-05:00)

Amateur Radio Satellites - All Passes

Search period start: 19 January 2017 09:31
Search period end: 20 January 2017 09:31
Location: Blue Sky Observatory, 43.1153°N, 70.9036°W

Satellite Date Start Highest point End Downlink Frequencies (MHz)
Time Altitude Azimuth
NANOSAT C BR1 19 Jan 09:32:45 09:35:30 17° 64° (ENE) 09:38:15 145.865
CUBEBUG 2 19 Jan 09:34:31 09:36:30 13° 297° (WNW) 09:38:29 437.445
DELFI C3 19 Jan 09:35:35 09:39:37 88° 285° (WNW) 09:43:36 145.870
JAS-2 19 Jan 09:43:23 09:48:38 67° 72° (ENE) 09:54:25 435.910
AAUSAT CUBESAT 2 19 Jan 09:43:24 09:44:53 12° 299° (WNW) 09:46:22 437.432
HO-68 19 Jan 09:55:00 09:58:52 15° 310° (NW) 10:02:42 435.675
PCSat 19 Jan 09:56:12 10:01:39 77° 242° (WSW) 10:07:03 145.827
FUNcube-1 19 Jan 10:04:54 10:07:40 17° 296° (WNW) 10:10:28 145.935
SO-50 19 Jan 10:06:34 10:08:51 13° 327° (NNW) 10:11:06 436.795
BUGSAT 1 19 Jan 10:08:58 10:11:05 14° 63° (ENE) 10:13:12 437.445
UNISAT 6 19 Jan 10:16:11 10:18:48 16° 268° (W) 10:21:27 437.425
QB50P1 19 Jan 10:22:32 10:26:39 63° 75° (ENE) 10:30:50 145.935-145.965
POLYITAN 1 19 Jan 10:26:13 10:30:22 70° 75° (ENE) 10:34:34 437.675
QB50P2 19 Jan 10:27:23 10:31:34 77° 77° (ENE) 10:35:47 145.880/145.840
RS-15 19 Jan 10:28:55 10:38:45 30° 258° (WSW) 10:48:20 29.354- 29.394
TIGRISAT 19 Jan 10:31:02 10:32:44 12° 270° (W) 10:34:26 435.000
BY70-1 19 Jan 10:40:42 10:44:05 69° 101° (ESE) 10:47:15 436.1900
POPSAT HIP 1 19 Jan 10:49:18 10:53:29 66° 259° (W) 10:57:39 437.405
HUMSAT D 19 Jan 10:49:28 10:53:05 27° 292° (WNW) 10:56:41 437.325/437.525
CUBEBUG 1 19 Jan 10:50:40 10:54:12 24° 94° (E) 10:57:42 437.445
DUCHIFAT 1 19 Jan 11:01:56 11:06:01 55° 260° (W) 11:10:07 145.980
AISAT 19 Jan 11:03:37 11:07:01 22° 94° (E) 11:10:22 437.250
NANOSAT C BR1 19 Jan 11:06:53 11:10:53 44° 261° (W) 11:14:54 145.865
ESTCUBE 1 19 Jan 11:19:17 11:23:51 84° 103° (ESE) 11:28:22 437.505/2401.250
JAS-2 19 Jan 11:31:20 11:34:29 16° 273° (W) 11:37:47 435.910
Oscar 19 19 Jan 11:33:05 11:37:44 34° 67° (ENE) 11:42:25 437.125/150
VELOX 1 19 Jan 11:36:28 11:40:43 45° 99° (E) 11:44:55 145.980
Gurwin Techsat 1B 19 Jan 11:37:33 11:41:31 22° 62° (ENE) 11:45:30 435.225
BUGSAT 1 19 Jan 11:42:03 11:46:02 53° 260° (W) 11:50:00 437.445
Cosmos 2491 19 Jan 11:57:30 12:05:29 37° 70° (ENE) 12:13:26 435.465 / 435.565
QB50P1 19 Jan 12:01:25 12:02:50 11° 270° (W) 12:04:16 145.935-145.965
POLYITAN 1 19 Jan 12:06:06 12:06:38 10° 271° (W) 12:07:11 437.675
50 SAT 19 Jan 12:08:28 12:12:03 88° 102° (ESE) 12:15:35 437.505
YUBILEINY 19 Jan 12:09:47 12:14:24 16° 74° (ENE) 12:19:02 435.215
DX 1 19 Jan 12:12:54 12:17:10 53° 101° (E) 12:21:24 434.975-435.025
TISAT 1 19 Jan 12:13:48 12:15:28 12° 90° (E) 12:17:08 437.305
UKube-1 19 Jan 12:14:43 12:18:48 40° 99° (E) 12:22:51 .
SPROUT 19 Jan 12:14:55 12:19:11 89° 284° (WNW) 12:23:27 437.525
AO-7 19 Jan 12:15:17 12:20:43 19° 47° (NE) 12:26:07 29.400- 29.500
ITAMSAT 1 19 Jan 12:17:32 12:18:24 10° 55° (NE) 12:19:17 435.822/435.867
CUSAT 1 19 Jan 12:22:12 12:28:22 24° 62° (ENE) 12:34:21 437.405
CUBEBUG 1 19 Jan 12:26:40 12:30:30 31° 291° (WNW) 12:34:19 437.445
AO-85 19 Jan 12:29:03 12:30:45 12° 109° (ESE) 12:32:24 145.980
AISAT 19 Jan 12:39:32 12:43:34 36° 291° (WNW) 12:47:34 437.250
AIST 1 19 Jan 12:42:53 12:45:48 18° 86° (E) 12:48:42
ESTCUBE 1 19 Jan 12:58:28 12:59:58 12° 301° (WNW) 13:01:27 437.505/2401.250
DANDE 19 Jan 12:59:28 13:04:21 18° 62° (ENE) 13:09:31 436.750
Oscar 19 19 Jan 13:12:27 13:17:02 31° 264° (W) 13:21:39 437.125/150
VELOX 1 19 Jan 13:13:47 13:16:50 19° 296° (WNW) 13:19:51 145.980
Gurwin Techsat 1B 19 Jan 13:15:54 13:21:04 54° 260° (W) 13:26:18 435.225
ITUPSAT 1 19 Jan 13:18:25 13:20:41 13° 90° (E) 13:22:57 437.325
TISAT 1 19 Jan 13:47:22 13:51:28 59° 287° (WNW) 13:55:34 437.305
DX 1 19 Jan 13:50:19 13:52:55 16° 298° (WNW) 13:55:31 434.975-435.025
UKube-1 19 Jan 13:51:26 13:54:33 20° 296° (WNW) 13:57:39 .
ITAMSAT 1 19 Jan 13:51:48 13:56:56 72° 73° (ENE) 14:02:07 435.822/435.867
BEESAT 19 Jan 13:52:23 13:56:34 29° 96° (E) 14:00:44 436.000
SWISSCUBE 19 Jan 13:53:45 13:58:08 34° 97° (E) 14:02:28 437.505
Cosmos 2491 19 Jan 13:54:11 14:02:35 52° 271° (W) 14:10:59 435.465 / 435.565
YUBILEINY 19 Jan 14:00:51 14:09:38 78° 95° (E) 14:18:30 435.215
MOZHAYETS 4 19 Jan 14:00:58 14:02:07 11° 88° (E) 14:03:15
CUSAT 1 19 Jan 14:03:11 14:11:13 83° 261° (W) 14:18:45 437.405
AO-7 19 Jan 14:03:48 14:12:08 75° 68° (ENE) 14:20:30 29.400- 29.500
Cosmos 2504 19 Jan 14:05:35 14:13:49 49° 90° (E) 14:21:36 435.465 / 435.565
AO-85 19 Jan 14:05:55 14:10:39 82° 303° (WNW) 14:15:02 145.980
AIST 1 19 Jan 14:18:55 14:23:02 40° 283° (WNW) 14:27:11
O/OREOS (USA 219) 19 Jan 14:28:17 14:30:32 13° 50° (NE) 14:32:47 437.305
DANDE 19 Jan 14:40:25 14:48:05 75° 79° (E) 14:56:28 436.750
ITUPSAT 1 19 Jan 14:54:12 14:59:00 70° 287° (WNW) 15:03:47 437.325
HORYU 2 19 Jan 14:58:22 15:00:04 12° 60° (ENE) 15:01:46 437.375
SO-50 19 Jan 15:13:31 15:17:03 22° 41° (NE) 15:20:32 436.795
BRITE-PL 19 Jan 15:21:35 15:27:01 48° 71° (ENE) 15:32:25 437.365/2234.400
BEESAT 19 Jan 15:30:05 15:34:18 32° 293° (WNW) 15:38:31 436.000
SWISSCUBE 19 Jan 15:31:44 15:35:47 28° 294° (WNW) 15:39:50 437.505
GOMX 1 19 Jan 15:32:39 15:37:03 26° 67° (ENE) 15:41:19 467.674
ITAMSAT 1 19 Jan 15:34:12 15:36:56 14° 270° (W) 15:39:41 435.822/435.867
MOZHAYETS 4 19 Jan 15:35:09 15:39:49 79° 286° (WNW) 15:44:28
Cubesat XI-IV 19 Jan 15:39:18 15:42:06 15° 58° (ENE) 15:44:55 437.490
STARS 19 Jan 15:44:00 15:47:02 18° 93° (E) 15:50:04 437.465
CUSAT 1 19 Jan 15:47:05 15:51:57 18° 281° (W) 15:56:42 437.405
AO-85 19 Jan 15:49:18 15:51:40 14° 322° (NW) 15:53:58 145.980
NOAA 15 19 Jan 15:51:13 15:54:55 20° 61° (ENE) 15:58:39 137.62
AO-7 19 Jan 15:59:07 16:05:37 25° 267° (W) 16:12:11 29.400- 29.500
Cosmos 2504 19 Jan 15:59:23 16:07:19 39° 288° (WNW) 16:14:52 435.465 / 435.565
YUBILEINY 19 Jan 16:00:36 16:07:26 25° 297° (WNW) 16:14:21 435.215
M-CUBED/EXP-1 PRIME 19 Jan 16:00:44 16:04:07 65° 108° (ESE) 16:07:21 437.505
BEESAT 3 19 Jan 16:01:27 16:05:12 49° 119° (ESE) 16:09:01 437.485
O/OREOS (USA 219) 19 Jan 16:06:01 16:10:31 78° 250° (WSW) 16:15:01 437.305
LilacSat-2 19 Jan 16:17:02 16:20:01 23° 68° (ENE) 16:23:02 437.200
DOVE 4 19 Jan 16:17:37 16:21:46 27° 68° (ENE) 16:25:45 437.250
CUBESAT XI-V 19 Jan 16:17:56 16:22:27 45° 98° (E) 16:26:55 437.345
KKS-1 19 Jan 16:23:01 16:27:28 78° 285° (WNW) 16:31:52 437.445
DANDE 19 Jan 16:24:11 16:30:16 26° 275° (W) 16:36:41 436.750
HORYU 2 19 Jan 16:31:35 16:35:59 76° 256° (WSW) 16:40:25 437.375
CUTE-I 19 Jan 16:33:42 16:38:40 42° 68° (ENE) 16:43:39 437.470
AUBIESAT-1 19 Jan 16:38:26 16:41:43 48° 292° (WNW) 16:44:54 437.475
BEESAT 2 19 Jan 16:43:41 16:47:34 61° 120° (ESE) 16:51:31 435.950
HO-68 19 Jan 16:49:24 16:54:25 21° 54° (NE) 16:59:26 435.675
SO-50 19 Jan 16:53:26 16:57:51 55° 240° (WSW) 17:02:11 436.795
BRITE-PL 19 Jan 17:00:57 17:05:38 26° 267° (W) 17:10:20 437.365/2234.400
GOMX 1 19 Jan 17:09:44 17:14:54 44° 262° (W) 17:19:52 467.674
NOAA 18 19 Jan 17:11:54 17:17:14 54° 70° (ENE) 17:22:34 137.9125
Cubesat XI-IV 19 Jan 17:16:07 17:21:27 85° 256° (WSW) 17:26:48 437.490
STARS 19 Jan 17:19:27 17:23:34 42° 290° (WNW) 17:27:41 437.465
NOAA 15 19 Jan 17:28:59 17:34:13 61° 258° (WSW) 17:39:30 137.62
BEESAT 3 19 Jan 17:40:14 17:43:05 19° 318° (NW) 17:45:58 437.485
LilacSat-2 19 Jan 17:51:02 17:54:12 25° 265° (W) 17:57:25 437.200
CINEMA 3 19 Jan 17:53:36 17:57:57 55° 74° (ENE) 18:02:08 145.822/145.860
DOVE 4 19 Jan 17:54:41 17:59:18 36° 263° (W) 18:03:44 437.250
CUTE 1.7 + AOD 2 19 Jan 17:55:04 17:58:50 32° 69° (ENE) 18:02:38 437.475
CUBESAT XI-V 19 Jan 17:56:03 17:59:30 21° 296° (WNW) 18:02:56 437.345
CUTE-I 19 Jan 18:14:28 18:18:51 26° 266° (W) 18:23:16 437.470
Cosmos 2499 19 Jan 18:22:35 18:29:49 33° 86° (E) 18:36:38 435.465 / 435.565
BEESAT 2 19 Jan 18:23:05 18:25:44 17° 319° (NW) 18:28:24 435.950
CANX-2 19 Jan 18:23:32 18:27:46 76° 75° (ENE) 18:32:03 2200.000
AIST 2 19 Jan 18:33:42 18:36:35 19° 111° (ESE) 18:39:31 435.215
HO-68 19 Jan 18:34:03 18:41:15 87° 253° (WSW) 18:48:31 435.675
SEEDS 19 Jan 18:36:46 18:40:55 61° 74° (ENE) 18:45:07 437.485
COMPASS 1 19 Jan 18:44:11 18:48:12 48° 73° (ENE) 18:52:17 437.405
GONETS M04 19 Jan 18:48:52 18:56:44 40° 86° (E) 19:04:39
Oscar 11 19 Jan 18:49:47 18:52:45 18° 65° (ENE) 18:55:44 145.826/435.025
NOAA 18 19 Jan 18:54:03 18:58:11 22° 267° (W) 19:02:21 137.9125
CUBEBUG 2 19 Jan 18:55:04 18:59:11 59° 74° (ENE) 19:03:16 437.445
AAUSAT CUBESAT 2 19 Jan 18:56:28 19:00:30 50° 73° (ENE) 19:04:35 437.432
Cubesat XI-IV 19 Jan 19:01:25 19:02:17 10° 273° (W) 19:03:09 437.490
STRAND 1 19 Jan 19:16:11 19:21:22 85° 106° (ESE) 19:26:31 437.568
FUNcube-1 19 Jan 19:24:01 19:27:54 42° 72° (ENE) 19:31:49 145.935
UWE-3 19 Jan 19:25:27 19:29:35 82° 74° (ENE) 19:33:45 435.000/436.395/437.385
CUTE 1.7 + AOD 2 19 Jan 19:31:18 19:34:42 23° 266° (W) 19:38:08 437.475
CINEMA 3 19 Jan 19:33:07 19:35:23 14° 269° (W) 19:37:38 145.822/145.860
ZACube-1 19 Jan 19:46:17 19:50:25 83° 78° (ENE) 19:54:36 437.345
HUMSAT D 19 Jan 20:06:18 20:09:28 22° 67° (ENE) 20:12:40 437.325/437.525
AIST 2 19 Jan 20:10:46 20:14:44 45° 309° (NW) 20:18:47 435.215
Cosmos 2499 19 Jan 20:14:25 20:22:38 54° 284° (WNW) 20:30:17 435.465 / 435.565
SEEDS 19 Jan 20:15:21 20:17:00 12° 271° (W) 20:18:41 437.485
PRISM 19 Jan 20:21:34 20:24:46 21° 94° (E) 20:27:56 437.425
COMPASS 1 19 Jan 20:21:36 20:24:01 15° 269° (W) 20:26:28 437.405
DELFI C3 19 Jan 20:21:36 20:25:32 58° 74° (ENE) 20:29:30 145.870
Oscar 11 19 Jan 20:24:26 20:28:33 44° 261° (W) 20:32:43 145.826/435.025
HO-68 19 Jan 20:25:51 20:29:55 16° 272° (W) 20:34:02 435.675
AAUSAT CUBESAT 2 19 Jan 20:34:00 20:36:15 14° 269° (W) 20:38:32 437.432
CUBEBUG 2 19 Jan 20:34:42 20:36:11 12° 270° (W) 20:37:41 437.445
TIGRISAT 19 Jan 20:43:37 20:45:16 12° 90° (E) 20:46:56 435.000
GONETS M04 19 Jan 20:45:08 20:53:23 47° 287° (WNW) 21:01:47
JAS-2 19 Jan 20:54:10 20:55:22 10° 84° (E) 20:56:35 435.910
STRAND 1 19 Jan 20:57:17 20:59:49 14° 302° (WNW) 21:02:21 437.568
BY70-1 19 Jan 20:57:23 20:59:14 15° 65° (ENE) 21:01:10 436.1900
ANTELSAT 19 Jan 20:57:25 21:00:29 18° 93° (E) 21:03:35 437.575/2403.000
AO-85 19 Jan 20:57:27 20:59:39 14° 38° (NE) 21:01:49 145.980
FUNcube-1 19 Jan 21:01:44 21:04:21 16° 268° (W) 21:07:00 145.935
ISS 19 Jan 21:02:53 21:04:01 11° 130° (SE) 21:05:10 145.825
HUMSAT D 19 Jan 21:41:12 21:44:54 32° 264° (W) 21:48:38 437.325/437.525
CUBEBUG 1 19 Jan 21:47:31 21:51:03 24° 66° (ENE) 21:54:34 437.445
PRISM 19 Jan 21:56:25 22:00:06 32° 291° (WNW) 22:03:45 437.425
DELFI C3 19 Jan 21:59:18 22:00:42 12° 270° (W) 22:02:07 145.870
AISAT 19 Jan 22:01:49 22:05:18 23° 66° (ENE) 22:08:47 437.250
UNISAT 6 19 Jan 22:04:20 22:08:46 88° 289° (WNW) 22:13:18 437.425
POLYITAN 1 19 Jan 22:12:50 22:13:33 10° 89° (E) 22:14:16 437.675
QB50P2 19 Jan 22:13:21 22:14:49 12° 90° (E) 22:16:17 145.880/145.840
TIGRISAT 19 Jan 22:17:59 22:22:23 68° 285° (WNW) 22:26:51 435.000
ESTCUBE 1 19 Jan 22:19:18 22:23:49 85° 78° (ENE) 22:28:25 437.505/2401.250
BY70-1 19 Jan 22:26:43 22:29:19 26° 264° (W) 22:32:06 436.1900
ANTELSAT 19 Jan 22:33:11 22:37:23 45° 288° (WNW) 22:41:41 437.575/2403.000
POPSAT HIP 1 19 Jan 22:33:50 22:36:45 18° 93° (E) 22:39:39 437.405
VELOX 1 19 Jan 22:34:20 22:38:34 45° 71° (ENE) 22:42:50 145.980
JAS-2 19 Jan 22:34:23 22:41:28 62° 101° (E) 22:49:07 435.910
AO-85 19 Jan 22:36:38 22:40:33 74° 238° (WSW) 22:44:26 145.980
ISS 19 Jan 22:36:47 22:40:01 89° 285° (WNW) 22:43:18 145.825
RS-15 19 Jan 22:38:57 22:49:59 49° 110° (ESE) 23:01:27 29.354- 29.394
50 SAT 19 Jan 22:43:49 22:47:10 38° 72° (ENE) 22:50:31 437.505
DUCHIFAT 1 19 Jan 22:45:26 22:48:37 21° 94° (E) 22:51:47 145.980
NANOSAT C BR1 19 Jan 22:50:18 22:53:49 25° 95° (E) 22:57:20 145.865
PCSat 19 Jan 22:59:49 23:01:18 11° 101° (ESE) 23:02:47 145.827
TISAT 1 19 Jan 23:07:06 23:08:29 11° 61° (ENE) 23:09:51 437.305
SPROUT 19 Jan 23:08:49 23:13:04 77° 75° (ENE) 23:17:20 437.525
DX 1 19 Jan 23:08:59 23:13:14 52° 72° (ENE) 23:17:30 434.975-435.025
UKube-1 19 Jan 23:09:53 23:13:54 39° 70° (ENE) 23:17:56 .
CUBEBUG 1 19 Jan 23:23:08 23:27:08 34° 263° (W) 23:31:11 437.445
BUGSAT 1 19 Jan 23:23:21 23:26:14 19° 94° (E) 23:29:07 437.445
AISAT 19 Jan 23:37:27 23:41:33 36° 262° (W) 23:45:41 437.250
QB50P1 19 Jan 23:41:39 23:45:52 78° 286° (WNW) 23:50:05 145.935-145.965
POLYITAN 1 19 Jan 23:45:35 23:49:48 71° 285° (WNW) 23:54:01 437.675
QB50P2 19 Jan 23:46:50 23:51:01 64° 286° (WNW) 23:55:12 145.880/145.840
Oscar 19 19 Jan 23:46:51 23:47:18 10° 87° (E) 23:47:46 437.125/150
Cosmos 2504 19 Jan 23:58:51 00:03:08 16° 60° (ENE) 00:07:16 435.465 / 435.565
POPSAT HIP 1 20 Jan 00:08:44 00:12:41 40° 289° (WNW) 00:16:38 437.405
YUBILEINY 20 Jan 00:10:09 00:18:23 41° 71° (ENE) 00:26:31 435.215
VELOX 1 20 Jan 00:12:14 00:15:15 18° 268° (W) 00:18:16 145.980
ISS 20 Jan 00:14:10 00:16:51 23° 345° (NNW) 00:19:32 145.825
BEESAT 3 20 Jan 00:17:21 00:21:09 40° 50° (NE) 00:24:56 437.485
50 SAT 20 Jan 00:18:43 00:20:33 13° 268° (W) 00:22:24 437.505
JAS-2 20 Jan 00:20:08 00:26:05 30° 297° (WNW) 00:32:28 435.910
DUCHIFAT 1 20 Jan 00:20:34 00:24:22 34° 290° (WNW) 00:28:11 145.980
AIST 1 20 Jan 00:24:35 00:28:46 50° 78° (ENE) 00:32:54
ITUPSAT 1 20 Jan 00:25:48 00:29:03 19° 62° (ENE) 00:32:19 437.325
NANOSAT C BR1 20 Jan 00:25:54 00:29:30 28° 292° (WNW) 00:33:06 145.865
PCSat 20 Jan 00:38:23 00:43:48 83° 118° (ESE) 00:49:15 145.827
TISAT 1 20 Jan 00:39:22 00:43:32 72° 258° (WSW) 00:47:43 437.305
UKube-1 20 Jan 00:46:55 00:50:05 20° 267° (W) 00:53:14 .
DX 1 20 Jan 00:47:12 00:49:43 15° 268° (W) 00:52:16 434.975-435.025
RS-15 20 Jan 00:50:31 01:02:18 59° 314° (NW) 01:14:32 29.354- 29.394
BUGSAT 1 20 Jan 00:58:02 01:01:42 35° 290° (WNW) 01:05:24 437.445
BEESAT 20 Jan 00:59:32 01:03:54 38° 69° (ENE) 01:08:18 436.000
Cosmos 2491 20 Jan 01:00:12 01:08:04 40° 86° (E) 01:15:56 435.465 / 435.565
BEESAT 2 20 Jan 01:00:30 01:04:27 50° 52° (NE) 01:08:23 435.950
SWISSCUBE 20 Jan 01:00:57 01:05:27 44° 70° (ENE) 01:09:58 437.505
MOZHAYETS 4 20 Jan 01:03:39 01:05:40 13° 60° (ENE) 01:07:42
M-CUBED/EXP-1 PRIME 20 Jan 01:15:31 01:17:03 12° 57° (ENE) 01:18:34 437.505
Oscar 19 20 Jan 01:22:10 01:27:22 86° 104° (ESE) 01:32:32 437.125/150
CUSAT 1 20 Jan 01:27:20 01:29:44 13° 76° (ENE) 01:32:21 437.405
Gurwin Techsat 1B 20 Jan 01:30:54 01:36:09 56° 101° (E) 01:41:21 435.225
KKS-1 20 Jan 01:48:20 01:50:06 12° 60° (ENE) 01:51:53 437.445
Cosmos 2504 20 Jan 01:50:19 01:57:49 85° 82° (E) 02:04:59 435.465 / 435.565
AUBIESAT-1 20 Jan 01:50:54 01:54:05 21° 62° (ENE) 01:57:08 437.475
ISS 20 Jan 01:51:45 01:54:07 18° 6° (N) 01:56:31 145.825
BEESAT 3 20 Jan 01:55:35 01:58:30 20° 248° (WSW) 02:01:25 437.485
ITUPSAT 1 20 Jan 02:01:49 02:06:28 54° 259° (W) 02:11:09 437.325
AIST 1 20 Jan 02:03:44 02:05:53 14° 276° (W) 02:08:00
ITAMSAT 1 20 Jan 02:04:16 02:08:23 23° 94° (E) 02:12:28 435.822/435.867
AO-7 20 Jan 02:05:34 02:11:44 22° 92° (E) 02:17:50 29.400- 29.500
YUBILEINY 20 Jan 02:07:00 02:15:15 47° 272° (W) 02:23:27 435.215
PCSat 20 Jan 02:24:01 02:27:53 19° 319° (NW) 02:31:46 145.827
MOZHAYETS 4 20 Jan 02:37:38 02:42:11 76° 256° (WSW) 02:46:49
BEESAT 20 Jan 02:37:58 02:41:47 24° 266° (W) 02:45:38 436.000
BEESAT 2 20 Jan 02:39:18 02:41:51 16° 249° (WSW) 02:44:23 435.950
PHONESAT 2.4 20 Jan 02:39:40 02:41:42 28° 167° (SSE) 02:43:45 2401.200-2431.200
SWISSCUBE 20 Jan 02:39:52 02:43:25 21° 267° (W) 02:47:00 437.505
STARS 20 Jan 02:41:39 02:44:47 20° 64° (ENE) 02:47:56 437.465
M-CUBED/EXP-1 PRIME 20 Jan 02:46:38 02:51:02 80° 252° (WSW) 02:55:10 437.505
AIST 2 20 Jan 02:53:06 02:56:22 21° 43° (NE) 02:59:38 435.215
Cosmos 2491 20 Jan 02:56:27 03:04:44 47° 286° (WNW) 03:13:06 435.465 / 435.565
Oscar 19 20 Jan 03:03:25 03:05:57 14° 302° (WNW) 03:08:29 437.125/150
CUSAT 1 20 Jan 03:05:07 03:10:10 88° 280° (W) 03:16:51 437.405
RS-15 20 Jan 03:08:05 03:18:13 29° 345° (NNW) 03:28:30 29.354- 29.394
Gurwin Techsat 1B 20 Jan 03:11:46 03:15:40 21° 298° (WNW) 03:19:34 435.225
KKS-1 20 Jan 03:21:36 03:26:03 76° 257° (WSW) 03:30:31 437.445
CUBESAT XI-V 20 Jan 03:21:47 03:26:19 49° 72° (ENE) 03:30:52 437.345
AUBIESAT-1 20 Jan 03:24:17 03:28:18 38° 256° (WSW) 03:32:05 437.475
ISS 20 Jan 03:28:07 03:31:14 41° 26° (NNE) 03:34:20 145.825
BRITE-PL 20 Jan 03:28:11 03:30:10 12° 86° (E) 03:32:07 437.365/2234.400
ITAMSAT 1 20 Jan 03:43:05 03:48:02 46° 291° (WNW) 03:52:59 435.822/435.867
Cosmos 2504 20 Jan 03:45:50 03:50:01 16° 283° (WNW) 03:54:07 435.465 / 435.565
DANDE 20 Jan 03:50:59 03:54:43 68° 96° (E) 03:59:48 436.750
AO-7 20 Jan 03:56:57 04:05:22 82° 290° (WNW) 04:13:41 29.400- 29.500
PHONESAT 2.4 20 Jan 04:13:22 04:15:34 40° 184° (S) 04:17:45 2401.200-2431.200
STARS 20 Jan 04:16:40 04:20:50 42° 261° (W) 04:25:01 437.465
HORYU 2 20 Jan 04:22:15 04:25:24 19° 93° (E) 04:28:31 437.375
AIST 2 20 Jan 04:31:00 04:35:08 51° 241° (WSW) 04:39:13 435.215
CUSAT 1 20 Jan 04:50:20 04:53:31 15° 305° (NW) 04:57:06 437.405
CUTE-I 20 Jan 04:50:55 04:53:56 15° 90° (E) 04:56:57 437.470
STRAND 1 20 Jan 04:56:04 04:59:27 18° 61° (ENE) 05:02:51 437.568
GONETS M04 20 Jan 04:57:50 05:04:14 21° 61° (ENE) 05:10:36
CUBESAT XI-V 20 Jan 05:00:44 05:03:57 18° 269° (W) 05:07:11 437.345
BRITE-PL 20 Jan 05:04:23 05:09:21 71° 286° (WNW) 05:13:52 437.365/2234.400
ISS 20 Jan 05:04:46 05:07:37 28° 223° (SW) 05:10:27 145.825
GOMX 1 20 Jan 05:10:56 05:15:18 52° 99° (E) 05:19:26 467.674
LilacSat-2 20 Jan 05:22:44 05:26:09 29° 96° (E) 05:29:33 437.200
RS-15 20 Jan 05:25:27 05:36:01 31° 20° (NNE) 05:46:25 29.354- 29.394
Cubesat XI-IV 20 Jan 05:32:33 05:37:26 36° 97° (E) 05:42:19 437.490
NOAA 18 20 Jan 05:33:44 05:37:42 20° 93° (E) 05:41:38 137.9125
DANDE 20 Jan 05:36:48 05:38:34 12° 305° (NW) 05:40:30 436.750
NOAA 15 20 Jan 05:43:06 05:48:14 47° 99° (E) 05:53:19 137.62
PHONESAT 2.4 20 Jan 05:47:40 05:49:21 18° 200° (SSW) 05:51:02 2401.200-2431.200
CINEMA 3 20 Jan 05:49:14 05:50:24 11° 90° (E) 05:51:35 145.822/145.860
AO-7 20 Jan 05:51:10 05:56:55 21° 311° (NW) 06:02:39 29.400- 29.500
DOVE 4 20 Jan 05:52:19 05:56:27 54° 100° (E) 06:00:30 437.250
HORYU 2 20 Jan 05:57:55 06:02:08 43° 289° (WNW) 06:06:21 437.375
HO-68 20 Jan 06:02:31 06:06:52 17° 89° (E) 06:11:11 435.675
Cosmos 2499 20 Jan 06:04:30 06:11:34 57° 77° (ENE) 06:18:28 435.465 / 435.565
CANX-2 20 Jan 06:09:20 06:11:15 13° 89° (E) 06:13:08 2200.000
O/OREOS (USA 219) 20 Jan 06:19:02 06:23:31 79° 294° (WNW) 06:28:00 437.305
CUTE-I 20 Jan 06:29:11 06:34:31 72° 287° (WNW) 06:39:50 437.470
STRAND 1 20 Jan 06:33:06 06:38:08 62° 259° (WSW) 06:43:12 437.568
CUBEBUG 2 20 Jan 06:46:26 06:48:02 12° 90° (E) 06:49:38 437.445
GOMX 1 20 Jan 06:50:16 06:52:55 16° 298° (WNW) 06:55:30 467.674
GONETS M04 20 Jan 06:53:25 07:02:18 88° 266° (W) 07:11:10
LilacSat-2 20 Jan 06:57:19 07:00:17 21° 292° (WNW) 07:03:14 437.200
SO-50 20 Jan 07:08:14 07:12:33 37° 116° (ESE) 07:16:51 436.795
PRISM 20 Jan 07:12:01 07:14:59 19° 65° (ENE) 07:17:57 437.425
Cubesat XI-IV 20 Jan 07:12:45 07:17:25 32° 294° (WNW) 07:22:05 437.490
NOAA 18 20 Jan 07:13:22 07:18:43 57° 289° (WNW) 07:24:02 137.9125
CUTE 1.7 + AOD 2 20 Jan 07:14:02 07:18:17 55° 100° (E) 07:22:29 437.475
UWE-3 20 Jan 07:14:48 07:17:26 16° 91° (E) 07:20:07 435.000/436.395/437.385
NOAA 15 20 Jan 07:23:28 07:27:43 25° 297° (WNW) 07:31:57 137.62
CINEMA 3 20 Jan 07:23:49 07:27:58 65° 285° (WNW) 07:32:11 145.822/145.860
DOVE 4 20 Jan 07:31:32 07:33:42 14° 298° (WNW) 07:35:49 437.250
ZACube-1 20 Jan 07:34:26 07:37:04 15° 91° (E) 07:39:42 437.345
RS-15 20 Jan 07:39:01 07:51:25 68° 50° (NE) 08:03:20 29.354- 29.394
PCSat 20 Jan 07:43:05 07:46:31 17° 38° (NE) 07:49:55 145.827
CANX-2 20 Jan 07:43:13 07:47:28 60° 286° (WNW) 07:51:41 2200.000
TIGRISAT 20 Jan 07:43:59 07:45:34 12° 61° (ENE) 07:47:11 435.000
HO-68 20 Jan 07:48:15 07:55:30 89° 286° (WNW) 08:02:40 435.675
SEEDS 20 Jan 07:55:01 07:59:18 77° 283° (WNW) 08:03:31 437.485
ANTELSAT 20 Jan 07:57:43 08:00:33 18° 64° (ENE) 08:03:24 437.575/2403.000
Cosmos 2499 20 Jan 07:58:34 08:04:07 25° 277° (W) 08:09:36 435.465 / 435.565
COMPASS 1 20 Jan 08:01:05 08:05:20 82° 103° (ESE) 08:09:31 437.405
O/OREOS (USA 219) 20 Jan 08:02:48 08:03:42 11° 313° (NW) 08:04:36 437.305
Oscar 11 20 Jan 08:10:36 08:14:29 30° 96° (E) 08:18:19 145.826/435.025
CUTE-I 20 Jan 08:12:19 08:13:36 11° 305° (NW) 08:14:54 437.470
AAUSAT CUBESAT 2 20 Jan 08:12:44 08:16:58 85° 105° (ESE) 08:21:08 437.432
CUBEBUG 2 20 Jan 08:20:45 08:25:02 67° 285° (WNW) 08:29:27 437.445
PRISM 20 Jan 08:46:04 08:49:59 39° 261° (W) 08:53:56 437.425
FUNcube-1 20 Jan 08:46:18 08:50:41 82° 101° (E) 08:55:10 145.935
SO-50 20 Jan 08:48:53 08:53:04 31° 314° (NW) 08:57:13 436.795
JAS-2 20 Jan 08:49:39 08:54:00 25° 61° (ENE) 08:58:42 435.910
UWE-3 20 Jan 08:49:56 08:54:09 51° 287° (WNW) 08:58:29 435.000/436.395/437.385
CUTE 1.7 + AOD 2 20 Jan 08:51:12 08:53:39 15° 297° (WNW) 08:56:06 437.475
GONETS M04 20 Jan 08:52:20 08:57:47 18° 284° (WNW) 09:03:16
UNISAT 6 20 Jan 09:03:58 09:08:15 89° 59° (ENE) 09:12:32 437.425
QB50P2 20 Jan 09:07:49 09:08:55 11° 60° (ENE) 09:10:00 145.880/145.840
ZACube-1 20 Jan 09:09:22 09:13:37 52° 287° (WNW) 09:17:56 437.345
TIGRISAT 20 Jan 09:17:28 09:21:42 70° 259° (W) 09:25:57 435.000
HUMSAT D 20 Jan 09:22:56 09:26:53 35° 97° (E) 09:30:50 437.325/437.525
